![](https://secure.gravatar.com/avatar/900f734c10632692418d1b47311b6af5.jpg?s=120&d=mm&r=g)
SB KEPS @ AMSAT $ORB11013.O Orbital Elements 11013.OSCAR
HR AMSAT ORBITAL ELEMENTS FOR OSCAR SATELLITES FROM WA5QGD FORT WORTH,TX January 13, 2011 Send Subscribe/unsubscribe to KEPS at http://www.amsat.org/mailman/listinfo/keps BID: ORB11013.O TO ALL RADIO AMATEURS BT
Satellite: AO-07 Catalog number: 07530 Epoch time: 11013.49194488 Element set: 977 Inclination: 101.3954 deg RA of node: 026.1340 deg Eccentricity: 0.0011729 Arg of perigee: 222.6671 deg Mean anomaly: 137.3490 deg Mean motion: 12.53580876 rev/day Decay rate: -2.7e-07 rev/day^2 Epoch rev: 65480 Checksum: 299
Satellite: FO-29 Catalog number: 24278 Epoch time: 11012.90483571 Element set: 0494 Inclination: 098.5221 deg RA of node: 178.1395 deg Eccentricity: 0.0350070 Arg of perigee: 299.9552 deg Mean anomaly: 056.7260 deg Mean motion: 13.52957028 rev/day Decay rate: 1.13e-06 rev/day^2 Epoch rev: 71146 Checksum: 312
Satellite: SO-33 Catalog number: 25509 Epoch time: 11012.44820556 Element set: 0881 Inclination: 031.4354 deg RA of node: 045.1104 deg Eccentricity: 0.0354064 Arg of perigee: 319.6497 deg Mean anomaly: 037.8350 deg Mean motion: 14.28357873 rev/day Decay rate: 3.25e-06 rev/day^2 Epoch rev: 63799 Checksum: 307
Satellite: RS-22 Catalog number: 27939 Epoch time: 11013.57371899 Element set: 896 Inclination: 097.8637 deg RA of node: 234.7823 deg Eccentricity: 0.0014507 Arg of perigee: 112.0306 deg Mean anomaly: 248.2450 deg Mean motion: 14.63499829 rev/day Decay rate: 1.52e-06 rev/day^2 Epoch rev: 38972 Checksum: 338
Satellite: VO-52 Catalog number: 28650 Epoch time: 11012.26134370 Element set: 0693 Inclination: 097.6653 deg RA of node: 062.2124 deg Eccentricity: 0.0026152 Arg of perigee: 314.4983 deg Mean anomaly: 045.4083 deg Mean motion: 14.81889841 rev/day Decay rate: 1.59e-06 rev/day^2 Epoch rev: 30765 Checksum: 300
Satellite: SO-67 Catalog number: 35870 Epoch time: 11013.76099569 Element set: 467 Inclination: 097.3041 deg RA of node: 062.0029 deg Eccentricity: 0.0004659 Arg of perigee: 081.3859 deg Mean anomaly: 028.4838 deg Mean motion: 15.21288965 rev/day Decay rate: 8.07e-06 rev/day^2 Epoch rev: 7346 Checksum: 336
Satellite: HO-68 Catalog number: 36122 Epoch time: 11013.63850660 Element set: 20 Inclination: 100.4412 deg RA of node: 076.6585 deg Eccentricity: 0.0007303 Arg of perigee: 215.7643 deg Mean anomaly: 144.2984 deg Mean motion: 13.16283747 rev/day Decay rate: -4.5e-07 rev/day^2 Epoch rev: 5190 Checksum: 270
/EX SB KEPS @ AMSAT $ORB11013.D Orbital Elements 11013.MICROS
HR AMSAT ORBITAL ELEMENTS FOR THE MICROSATS FROM WA5QGD FORT WORTH,TX January 13, 2011 Send Subscribe/unsubscribe to KEPS at http://www.amsat.org/mailman/listinfo/keps BID: ORB11013.D TO ALL RADIO AMATEURS BT
Satellite: UO-11 Catalog number: 14781 Epoch time: 11012.76658471 Element set: 442 Inclination: 098.0273 deg RA of node: 069.7987 deg Eccentricity: 0.0008067 Arg of perigee: 284.3286 deg Mean anomaly: 075.7019 deg Mean motion: 14.79877670 rev/day Decay rate: -2.14e-06 rev/day^2 Epoch rev: 44280 Checksum: 332
Satellite: AO-16 Catalog number: 20439 Epoch time: 11012.68508410 Element set: 91 Inclination: 098.3642 deg RA of node: 327.6749 deg Eccentricity: 0.0010081 Arg of perigee: 266.7423 deg Mean anomaly: 093.2601 deg Mean motion: 14.31891347 rev/day Decay rate: 3.9e-07 rev/day^2 Epoch rev: 9536 Checksum: 290
Satellite: LO-19 Catalog number: 20442 Epoch time: 11013.48776701 Element set: 0 Inclination: 098.3263 deg RA of node: 333.4060 deg Eccentricity: 0.0011004 Arg of perigee: 255.0006 deg Mean anomaly: 104.9973 deg Mean motion: 14.32119039 rev/day Decay rate: -7.0e-07 rev/day^2 Epoch rev: 9565 Checksum: 252
Satellite: AO-27 Catalog number: 22825 Epoch time: 11012.81466278 Element set: 0724 Inclination: 098.5133 deg RA of node: 320.6236 deg Eccentricity: 0.0008935 Arg of perigee: 017.7578 deg Mean anomaly: 342.3918 deg Mean motion: 14.29322447 rev/day Decay rate: -8.8e-07 rev/day^2 Epoch rev: 90199 Checksum: 323
Satellite: IO-26 Catalog number: 22826 Epoch time: 11012.91238998 Element set: 0462 Inclination: 098.5087 deg RA of node: 321.2463 deg Eccentricity: 0.0009231 Arg of perigee: 012.6893 deg Mean anomaly: 347.4524 deg Mean motion: 14.29581951 rev/day Decay rate: 2.3e-07 rev/day^2 Epoch rev: 90212 Checksum: 300
Satellite: GO-32 Catalog number: 25397 Epoch time: 11012.75058889 Element set: 0381 Inclination: 098.3192 deg RA of node: 013.7004 deg Eccentricity: 0.0001814 Arg of perigee: 041.1329 deg Mean anomaly: 318.9978 deg Mean motion: 14.23194427 rev/day Decay rate: 1.04e-06 rev/day^2 Epoch rev: 64985 Checksum: 308
Satellite: NO-44 Catalog number: 26931 Epoch time: 11012.52385109 Element set: 653 Inclination: 067.0529 deg RA of node: 024.6176 deg Eccentricity: 0.0006712 Arg of perigee: 273.6535 deg Mean anomaly: 086.3792 deg Mean motion: 14.29630404 rev/day Decay rate: 1.77e-06 rev/day^2 Epoch rev: 48467 Checksum: 305
Satellite: SO-50 Catalog number: 27607 Epoch time: 11013.67676091 Element set: 365 Inclination: 064.5586 deg RA of node: 077.1302 deg Eccentricity: 0.0054912 Arg of perigee: 358.4555 deg Mean anomaly: 001.6374 deg Mean motion: 14.71629985 rev/day Decay rate: 1.6e-07 rev/day^2 Epoch rev: 43335 Checksum: 308
Satellite: CO-55 Catalog number: 27844 Epoch time: 11013.59784542 Element set: 21 Inclination: 098.7079 deg RA of node: 024.5399 deg Eccentricity: 0.0009186 Arg of perigee: 287.1848 deg Mean anomaly: 072.8322 deg Mean motion: 14.20761095 rev/day Decay rate: 5.6e-07 rev/day^2 Epoch rev: 39096 Checksum: 330
Satellite: CO-57 Catalog number: 27848 Epoch time: 11011.54545778 Element set: 0968 Inclination: 098.7132 deg RA of node: 021.6580 deg Eccentricity: 0.0009220 Arg of perigee: 298.3809 deg Mean anomaly: 061.6445 deg Mean motion: 14.20547277 rev/day Decay rate: 6.2e-07 rev/day^2 Epoch rev: 39062 Checksum: 321
Satellite: AO-51 Catalog number: 28375 Epoch time: 11012.47472926 Element set: 0870 Inclination: 098.0795 deg RA of node: 359.2630 deg Eccentricity: 0.0083225 Arg of perigee: 181.8080 deg Mean anomaly: 178.2823 deg Mean motion: 14.40719186 rev/day Decay rate: 2.9e-07 rev/day^2 Epoch rev: 34364 Checksum: 318
Satellite: CP3 Catalog number: 31129 Epoch time: 11012.52345440 Element set: 0772 Inclination: 097.9163 deg RA of node: 045.6238 deg Eccentricity: 0.0101511 Arg of perigee: 304.8329 deg Mean anomaly: 054.3365 deg Mean motion: 14.52362665 rev/day Decay rate: 1.36e-06 rev/day^2 Epoch rev: 19824 Checksum: 277
Satellite: CO-65 Catalog number: 32785 Epoch time: 11013.72269770 Element set: 887 Inclination: 097.8703 deg RA of node: 080.4389 deg Eccentricity: 0.0014324 Arg of perigee: 323.3287 deg Mean anomaly: 036.6940 deg Mean motion: 14.81805291 rev/day Decay rate: -9.1e-07 rev/day^2 Epoch rev: 14666 Checksum: 325
Satellite: KKS-1 Catalog number: 33493 Epoch time: 11013.76159188 Element set: 215 Inclination: 098.1052 deg RA of node: 140.3793 deg Eccentricity: 0.0019999 Arg of perigee: 176.8709 deg Mean anomaly: 183.2642 deg Mean motion: 14.81282806 rev/day Decay rate: 7.40e-06 rev/day^2 Epoch rev: 10665 Checksum: 314
Satellite: SOHLA-1 Catalog number: 33496 Epoch time: 11013.49173891 Element set: 306 Inclination: 098.0697 deg RA of node: 125.0231 deg Eccentricity: 0.0005524 Arg of perigee: 252.5707 deg Mean anomaly: 107.4900 deg Mean motion: 14.69548401 rev/day Decay rate: 3.9e-07 rev/day^2 Epoch rev: 10576 Checksum: 285
Satellite: TISAT-1 Catalog number: 36799 Epoch time: 11013.76252797 Element set: 489 Inclination: 098.1228 deg RA of node: 080.3757 deg Eccentricity: 0.0016583 Arg of perigee: 058.4240 deg Mean anomaly: 301.8575 deg Mean motion: 14.80289632 rev/day Decay rate: 4.46e-06 rev/day^2 Epoch rev: 2746 Checksum: 328
Satellite: STUDSAT Catalog number: 36801 Epoch time: 11013.82233359 Element set: 118 Inclination: 098.1266 deg RA of node: 080.3013 deg Eccentricity: 0.0014833 Arg of perigee: 046.2900 deg Mean anomaly: 313.9535 deg Mean motion: 14.79944404 rev/day Decay rate: 1.152e-05 rev/day^2 Epoch rev: 2746 Checksum: 267
Satellite: RAX Catalog number: 37223 Epoch time: 11012.40204391 Element set: 0052 Inclination: 071.9722 deg RA of node: 022.5456 deg Eccentricity: 0.0022448 Arg of perigee: 219.7794 deg Mean anomaly: 140.1715 deg Mean motion: 14.77216282 rev/day Decay rate: 3.14e-06 rev/day^2 Epoch rev: 00788 Checksum: 262
Satellite: OOREOS Catalog number: 37224 Epoch time: 11003.47313986 Element set: 0047 Inclination: 071.9731 deg RA of node: 042.3045 deg Eccentricity: 0.0021305 Arg of perigee: 233.7010 deg Mean anomaly: 126.2182 deg Mean motion: 14.76873402 rev/day Decay rate: 1.90e-06 rev/day^2 Epoch rev: 00655 Checksum: 247
Satellite: FASTSAT Catalog number: 37225 Epoch time: 10339.55430316 Element set: 0021 Inclination: 071.9720 deg RA of node: 106.1057 deg Eccentricity: 0.0019965 Arg of perigee: 280.4841 deg Mean anomaly: 079.4053 deg Mean motion: 14.76483442 rev/day Decay rate: 4.1e-07 rev/day^2 Epoch rev: 00228 Checksum: 266
Satellite: FAST1-2 Catalog number: 37227 Epoch time: 11011.27978720 Element set: 0051 Inclination: 071.9718 deg RA of node: 025.1673 deg Eccentricity: 0.0018572 Arg of perigee: 217.0654 deg Mean anomaly: 142.9207 deg Mean motion: 14.76383437 rev/day Decay rate: 3.9e-07 rev/day^2 Epoch rev: 00770 Checksum: 289
/EX SB KEPS @ AMSAT $ORB11013.W Orbital Elements 11013.WEATHER
HR AMSAT ORBITAL ELEMENTS FOR WEATHER SATELLITES FROM WA5QGD FORT WORTH,TX January 13, 2011 Send Subscribe/unsubscribe to KEPS at http://www.amsat.org/mailman/listinfo/keps BID: ORB11013.W TO ALL RADIO AMATEURS BT
Satellite: NOAA-10 Catalog number: 16969 Epoch time: 11012.59942744 Element set: 0356 Inclination: 098.6369 deg RA of node: 044.3744 deg Eccentricity: 0.0011912 Arg of perigee: 323.4754 deg Mean anomaly: 036.5598 deg Mean motion: 14.27440607 rev/day Decay rate: 1.0e-08 rev/day^2 Epoch rev: 26545 Checksum: 310
